Terminal Aerodrome Forecast
Issued by NWS La Crosse, WI

Home | Current Version | Previous Version | Text Only | Print | Product List | Glossary On
Versions: 1 2 3 4 5 6 7 8 9 10 11 12 13 14 15 16 17 18 19 20 21 22 23 24 25 26 27 28
000
FTUS43 KARX 240823 AAA
TAFLSE
TAF AMD
KLSE 240823Z 2408/2506 16006KT P6SM BKN060 OVC100
     FM241100 17007KT P6SM VCSH BKN045
     FM241700 24008KT P6SM BKN050
     FM250100 VRB04KT P6SM SCT060=

USA.gov is the U.S. government's official web portal to all federal, state and local government web resources and services.